| time (UTC) | temp C | wind direction | speed KPH | gust KPH | rain 1hr cm | rain 24hr cm | rain mn cm | humidity % | barometer mb |
| 20260906131236 | 21 | 81 | 0.0 | 1.6 | 0.00 | 0.00 | 0.00 | 96 | 1019.7 |
| 20260906130732 | 20 | 64 | 3.2 | 3.2 | 0.00 | 0.00 | 0.00 | 97 | 1019.9 |
| 20260906130227 | 20 | 101 | 1.6 | 1.6 | 0.00 | 0.00 | 0.00 | 99 | 1019.7 |
| 20260906125725 | 20 | 60 | 3.2 | 3.2 | 0.00 | 0.00 | 0.00 | 99 | 1019.9 |
| 20260906125223 | 20 | 66 | 0.0 | 0.0 | 0.00 | 0.00 | 0.00 | 99 | 1019.8 |
| 20260906124724 | 19 | 72 | 1.6 | 1.6 | 0.00 | 0.00 | 0.00 | 99 | 1019.9 |
| 20260906124220 | 19 | 56 | 3.2 | 3.2 | 0.00 | 0.00 | 0.00 | 99 | 1019.6 |
| 20260906123718 | 19 | 72 | 1.6 | 3.2 | 0.00 | 0.00 | 0.00 | 99 | 1019.6 |
| 20260906123214 | 18 | 104 | 0.0 | 0.0 | 0.00 | 0.00 | 0.00 | 99 | 1019.3 |
| 20260906122713 | 18 | 147 | 1.6 | 3.2 | 0.00 | 0.00 | 0.00 | 99 | 1019.4 |
| 20260906122208 | 18 | 49 | 1.6 | 1.6 | 0.00 | 0.00 | 0.00 | 99 | 1019.3 |
| 20260906121705 | 18 | 52 | 1.6 | 1.6 | 0.00 | 0.00 | 0.00 | 99 | 1019.2 |
| 20260906121201 | 18 | 65 | 1.6 | 1.6 | 0.00 | 0.00 | 0.00 | 99 | 1019.2 |
| 20260906120656 | 18 | 30 | 0.0 | 1.6 | 0.00 | 0.00 | 0.00 | 99 | 1019.2 |
| 20260906120153 | 18 | 84 | 1.6 | 1.6 | 0.00 | 0.00 | 0.00 | 99 | 1019.3 |
| 20260906115648 | 18 | 60 | 1.6 | 3.2 | 0.00 | 0.00 | 0.00 | 99 | 1019.0 |
| 20260906115143 | 18 | 53 | 0.0 | 0.0 | 0.00 | 0.00 | 0.00 | 99 | 1018.8 |
| 20260906114642 | 18 | 47 | 0.0 | 0.0 | 0.00 | 0.00 | 0.00 | 99 | 1018.9 |
| 20260906114138 | 18 | 60 | 0.0 | 0.0 | 0.00 | 0.00 | 0.00 | 99 | 1019.0 |
| 20260906113638 | 18 | 48 | 0.0 | 0.0 | 0.00 | 0.00 | 0.00 | 99 | 1018.7 |
| 20260906113138 | 18 | 339 | 0.0 | 0.0 | 0.00 | 0.00 | 0.00 | 99 | 1018.6 |
| 20260906112637 | 18 | 339 | 0.0 | 0.0 | 0.00 | 0.00 | 0.00 | 99 | 1018.3 |
| 20260906112134 | 18 | 339 | 0.0 | 0.0 | 0.00 | 0.00 | 0.00 | 99 | 1018.5 |
| 20260906111633 | 18 | 338 | 0.0 | 0.0 | 0.00 | 0.00 | 0.00 | 99 | 1018.6 |
| 20260906111128 | 18 | 338 | 0.0 | 0.0 | 0.00 | 0.00 | 0.00 | 99 | 1018.7 |
| 20260906110623 | 18 | 309 | 0.0 | 0.0 | 0.00 | 0.00 | 0.00 | 99 | 1018.6 |
| 20260906110118 | 18 | 310 | 0.0 | 0.0 | 0.00 | 0.00 | 0.00 | 99 | 1018.4 |
| 20260906105612 | 18 | 309 | 0.0 | 0.0 | 0.00 | 0.00 | 0.00 | 99 | 1018.5 |
| 20260906105109 | 18 | 347 | 0.0 | 0.0 | 0.00 | 0.00 | 0.00 | 99 | 1018.4 |
| 20260906104607 | 18 | 314 | 0.0 | 0.0 | 0.00 | 0.00 | 0.00 | 99 | 1018.3 |
| 20260906104102 | 18 | 325 | 0.0 | 0.0 | 0.00 | 0.00 | 0.00 | 99 | 1018.3 |
| 20260906103600 | 18 | 23 | 0.0 | 0.0 | 0.00 | 0.00 | 0.00 | 99 | 1018.6 |
| 20260906103056 | 18 | 290 | 0.0 | 0.0 | 0.00 | 0.00 | 0.00 | 99 | 1018.3 |
| 20260906102555 | 18 | 70 | 0.0 | 1.6 | 0.00 | 0.00 | 0.00 | 99 | 1018.6 |
| 20260906102050 | 18 | 13 | 0.0 | 0.0 | 0.00 | 0.00 | 0.00 | 99 | 1018.5 |
| 20260906101545 | 18 | 0 | 0.0 | 1.6 | 0.00 | 0.00 | 0.00 | 99 | 1018.3 |
| 20260906101039 | 18 | 47 | 0.0 | 0.0 | 0.00 | 0.00 | 0.00 | 99 | 1018.1 |
| 20260906100535 | 18 | 77 | 0.0 | 0.0 | 0.00 | 0.00 | 0.00 | 99 | 1018.2 |
| 20260906100036 | 18 | 356 | 0.0 | 0.0 | 0.00 | 0.00 | 0.00 | 99 | 1018.1 |
| 20260906095530 | 18 | 51 | 0.0 | 0.0 | 0.00 | 0.00 | 0.00 | 99 | 1017.8 |
| 20260906095026 | 18 | 344 | 1.6 | 3.2 | 0.00 | 0.00 | 0.00 | 99 | 1018.1 |
| 20260906094524 | 18 | 7 | 0.0 | 0.0 | 0.00 | 0.00 | 0.00 | 99 | 1018.2 |
| 20260906094021 | 18 | 346 | 0.0 | 1.6 | 0.00 | 0.00 | 0.00 | 99 | 1018.1 |
| 20260906093516 | 18 | 64 | 0.0 | 0.0 | 0.00 | 0.00 | 0.00 | 99 | 1018.2 |
| 20260906093016 | 18 | 61 | 0.0 | 0.0 | 0.00 | 0.00 | 0.00 | 99 | 1018.0 |
| 20260906092511 | 18 | 22 | 1.6 | 1.6 | 0.00 | 0.00 | 0.00 | 99 | 1018.1 |
| 20260906092006 | 18 | 11 | 0.0 | 0.0 | 0.00 | 0.00 | 0.00 | 99 | 1018.0 |
| 20260906091502 | 18 | 15 | 0.0 | 0.0 | 0.00 | 0.00 | 0.00 | 99 | 1017.9 |
| 20260906090959 | 18 | 348 | 0.0 | 1.6 | 0.00 | 0.00 | 0.00 | 99 | 1017.9 |
| 20260906090453 | 18 | 78 | 1.6 | 1.6 | 0.00 | 0.00 | 0.00 | 99 | 1017.8 |
| 20260906085953 | 18 | 315 | 0.0 | 0.0 | 0.00 | 0.00 | 0.00 | 99 | 1018.0 |
| 20260906085452 | 18 | 314 | 0.0 | 1.6 | 0.00 | 0.00 | 0.00 | 99 | 1017.9 |
| 20260906084951 | 18 | 319 | 0.0 | 0.0 | 0.00 | 0.00 | 0.00 | 99 | 1018.0 |
| 20260906084446 | 18 | 353 | 3.2 | 3.2 | 0.00 | 0.00 | 0.00 | 99 | 1017.8 |
| 20260906083945 | 18 | 289 | 1.6 | 1.6 | 0.00 | 0.00 | 0.00 | 99 | 1017.8 |
| 20260906083441 | 18 | 343 | 0.0 | 0.0 | 0.00 | 0.00 | 0.00 | 99 | 1017.8 |
| 20260906082940 | 18 | 316 | 0.0 | 1.6 | 0.00 | 0.00 | 0.00 | 99 | 1017.9 |
| 20260906082436 | 18 | 345 | 0.0 | 0.0 | 0.00 | 0.00 | 0.00 | 99 | 1017.9 |
| 20260906081931 | 18 | 311 | 1.6 | 1.6 | 0.00 | 0.00 | 0.00 | 99 | 1017.9 |
| 20260906081426 | 18 | 321 | 0.0 | 0.0 | 0.00 | 0.00 | 0.00 | 99 | 1018.0 |
| 20260906080923 | 18 | 309 | 0.0 | 1.6 | 0.00 | 0.00 | 0.00 | 99 | 1017.9 |
| 20260906080419 | 18 | 1 | 0.0 | 0.0 | 0.00 | 0.00 | 0.00 | 99 | 1017.9 |
| 20260906075919 | 18 | 328 | 0.0 | 0.0 | 0.00 | 0.00 | 0.00 | 99 | 1017.9 |
| 20260906075414 | 18 | 4 | 0.0 | 0.0 | 0.00 | 0.00 | 0.00 | 99 | 1017.7 |
| 20260906074909 | 18 | 299 | 0.0 | 0.0 | 0.00 | 0.00 | 0.00 | 99 | 1017.9 |
| 20260906074409 | 18 | 306 | 0.0 | 0.0 | 0.00 | 0.00 | 0.00 | 99 | 1018.0 |
| 20260906073908 | 18 | 312 | 0.0 | 0.0 | 0.00 | 0.00 | 0.00 | 99 | 1018.1 |
| 20260906073403 | 18 | 345 | 0.0 | 0.0 | 0.00 | 0.00 | 0.00 | 99 | 1018.2 |
| 20260906072859 | 18 | 353 | 0.0 | 0.0 | 0.00 | 0.00 | 0.00 | 99 | 1018.2 |
| 20260906072354 | 18 | 354 | 0.0 | 0.0 | 0.00 | 0.00 | 0.00 | 99 | 1018.0 |
| 20260906071850 | 18 | 355 | 0.0 | 0.0 | 0.00 | 0.00 | 0.00 | 99 | 1018.0 |
| 20260906071345 | 18 | 355 | 0.0 | 0.0 | 0.00 | 0.00 | 0.00 | 99 | 1018.0 |
| 20260906070841 | 18 | 355 | 0.0 | 0.0 | 0.00 | 0.00 | 0.00 | 99 | 1018.1 |
| 20260906070337 | 18 | 301 | 0.0 | 0.0 | 0.00 | 0.00 | 0.00 | 99 | 1018.0 |
| 20260906065832 | 18 | 301 | 0.0 | 0.0 | 0.00 | 0.00 | 0.00 | 99 | 1018.0 |
| 20260906065327 | 18 | 301 | 0.0 | 0.0 | 0.00 | 0.00 | 0.00 | 99 | 1018.1 |
| 20260906064822 | 18 | 301 | 0.0 | 0.0 | 0.00 | 0.00 | 0.00 | 99 | 1018.3 |
| 20260906064318 | 18 | 301 | 0.0 | 0.0 | 0.00 | 0.00 | 0.00 | 99 | 1017.9 |
| 20260906063813 | 18 | 301 | 0.0 | 0.0 | 0.00 | 0.00 | 0.00 | 99 | 1018.2 |
| 20260906063308 | 18 | 301 | 0.0 | 0.0 | 0.00 | 0.00 | 0.00 | 99 | 1018.1 |
| 20260906062803 | 18 | 301 | 0.0 | 0.0 | 0.00 | 0.00 | 0.00 | 99 | 1018.0 |
| 20260906062305 | 19 | 301 | 0.0 | 0.0 | 0.00 | 0.00 | 0.00 | 99 | 1018.1 |
| 20260906061758 | 19 | 301 | 0.0 | 0.0 | 0.00 | 0.00 | 0.00 | 99 | 1018.2 |
| 20260906061255 | 19 | 301 | 0.0 | 0.0 | 0.00 | 0.00 | 0.00 | 99 | 1018.0 |
| 20260906060749 | 19 | 301 | 0.0 | 0.0 | 0.00 | 0.00 | 0.00 | 99 | 1017.9 |
| 20260906060247 | 19 | 301 | 0.0 | 0.0 | 0.00 | 0.00 | 0.00 | 99 | 1018.3 |
| 20260906055742 | 20 | 301 | 0.0 | 0.0 | 0.00 | 0.00 | 0.00 | 99 | 1018.1 |
| 20260906055237 | 20 | 301 | 0.0 | 0.0 | 0.00 | 0.00 | 0.00 | 99 | 1018.2 |
| 20260906054733 | 20 | 302 | 0.0 | 0.0 | 0.00 | 0.00 | 0.00 | 99 | 1018.3 |
| 20260906054228 | 20 | 302 | 0.0 | 0.0 | 0.00 | 0.00 | 0.00 | 99 | 1018.2 |
| 20260906053725 | 20 | 300 | 0.0 | 0.0 | 0.00 | 0.00 | 0.00 | 99 | 1018.1 |
| 20260906053220 | 20 | 303 | 0.0 | 0.0 | 0.00 | 0.00 | 0.00 | 99 | 1018.1 |
| 20260906052715 | 20 | 300 | 0.0 | 0.0 | 0.00 | 0.00 | 0.00 | 99 | 1018.0 |
| 20260906052211 | 20 | 14 | 0.0 | 0.0 | 0.00 | 0.00 | 0.00 | 99 | 1017.8 |
| 20260906051708 | 20 | 311 | 0.0 | 0.0 | 0.00 | 0.00 | 0.00 | 99 | 1017.7 |
| 20260906051207 | 20 | 61 | 1.6 | 1.6 | 0.00 | 0.00 | 0.00 | 99 | 1017.7 |
| 20260906050703 | 20 | 8 | 1.6 | 3.2 | 0.00 | 0.00 | 0.00 | 99 | 1017.7 |
| 20260906050158 | 20 | 70 | 0.0 | 0.0 | 0.00 | 0.00 | 0.00 | 99 | 1017.8 |
| 20260906045656 | 20 | 35 | 3.2 | 4.8 | 0.00 | 0.00 | 0.00 | 99 | 1017.7 |
| 20260906045151 | 20 | 33 | 1.6 | 3.2 | 0.00 | 0.00 | 0.00 | 99 | 1017.7 |
| 20260906044647 | 20 | 63 | 1.6 | 3.2 | 0.00 | 0.00 | 0.00 | 99 | 1017.4 |
| 20260906044142 | 20 | 53 | 0.0 | 1.6 | 0.00 | 0.00 | 0.00 | 99 | 1017.4 |
| 20260906043639 | 20 | 66 | 3.2 | 4.8 | 0.00 | 0.00 | 0.00 | 99 | 1017.5 |
| 20260906043134 | 20 | 78 | 1.6 | 1.6 | 0.00 | 0.00 | 0.00 | 99 | 1017.3 |
| 20260906042633 | 20 | 42 | 1.6 | 1.6 | 0.00 | 0.00 | 0.00 | 99 | 1017.3 |
| 20260906042127 | 20 | 5 | 0.0 | 1.6 | 0.00 | 0.00 | 0.00 | 99 | 1017.3 |
| 20260906041623 | 20 | 80 | 0.0 | 1.6 | 0.00 | 0.00 | 0.00 | 99 | 1017.2 |
| 20260906041118 | 20 | 59 | 1.6 | 1.6 | 0.00 | 0.00 | 0.00 | 99 | 1017.1 |
| 20260906040614 | 20 | 326 | 1.6 | 3.2 | 0.00 | 0.00 | 0.00 | 99 | 1017.0 |
| 20260906040109 | 20 | 57 | 1.6 | 1.6 | 0.00 | 0.00 | 0.00 | 99 | 1017.2 |
| 20260906035604 | 20 | 83 | 0.0 | 1.6 | 0.00 | 0.00 | 0.00 | 99 | 1017.2 |
| 20260906035100 | 20 | 76 | 0.0 | 0.0 | 0.00 | 0.00 | 0.00 | 99 | 1017.1 |
| 20260906034559 | 20 | 76 | 0.0 | 0.0 | 0.00 | 0.00 | 0.00 | 99 | 1017.1 |
| 20260906034054 | 20 | 43 | 0.0 | 0.0 | 0.00 | 0.00 | 0.00 | 99 | 1017.1 |
| 20260906033550 | 20 | 64 | 3.2 | 4.8 | 0.00 | 0.00 | 0.00 | 99 | 1017.2 |
| 20260906033045 | 20 | 72 | 4.8 | 9.7 | 0.00 | 0.00 | 0.00 | 99 | 1017.2 |
| 20260906032542 | 20 | 336 | 4.8 | 4.8 | 0.00 | 0.00 | 0.00 | 99 | 1017.0 |
| 20260906032036 | 20 | 113 | 3.2 | 8.0 | 0.00 | 0.00 | 0.00 | 98 | 1016.8 |
| 20260906031532 | 20 | 56 | 3.2 | 3.2 | 0.00 | 0.00 | 0.00 | 98 | 1017.0 |
| 20260906031027 | 20 | 63 | 4.8 | 8.0 | 0.00 | 0.00 | 0.00 | 98 | 1017.1 |
| 20260906030526 | 20 | 92 | 1.6 | 3.2 | 0.00 | 0.00 | 0.00 | 98 | 1017.1 |
| 20260906030026 | 20 | 46 | 4.8 | 4.8 | 0.00 | 0.00 | 0.00 | 98 | 1017.0 |
| 20260906025526 | 20 | 67 | 1.6 | 3.2 | 0.00 | 0.00 | 0.00 | 98 | 1017.0 |
| 20260906025024 | 20 | 52 | 0.0 | 0.0 | 0.00 | 0.00 | 0.00 | 98 | 1016.9 |
| 20260906024520 | 20 | 28 | 1.6 | 3.2 | 0.00 | 0.00 | 0.00 | 98 | 1017.0 |
| 20260906024020 | 20 | 13 | 3.2 | 3.2 | 0.00 | 0.00 | 0.00 | 97 | 1017.1 |
| 20260906023516 | 21 | 38 | 4.8 | 8.0 | 0.00 | 0.00 | 0.00 | 97 | 1017.0 |
| 20260906023011 | 21 | 68 | 3.2 | 8.0 | 0.00 | 0.00 | 0.00 | 97 | 1016.9 |
| 20260906022506 | 21 | 91 | 1.6 | 1.6 | 0.00 | 0.00 | 0.00 | 97 | 1016.6 |
| 20260906022001 | 21 | 62 | 3.2 | 4.8 | 0.00 | 0.00 | 0.00 | 97 | 1016.9 |
| 20260906021456 | 21 | 87 | 4.8 | 8.0 | 0.00 | 0.00 | 0.00 | 96 | 1016.8 |
| 20260906020950 | 21 | 77 | 0.0 | 0.0 | 0.00 | 0.00 | 0.00 | 96 | 1017.0 |
| 20260906020445 | 21 | 90 | 0.0 | 1.6 | 0.00 | 0.00 | 0.00 | 96 | 1016.8 |
| 20260906015944 | 21 | 81 | 3.2 | 3.2 | 0.00 | 0.00 | 0.00 | 95 | 1016.9 |
| 20260906015444 | 21 | 89 | 0.0 | 0.0 | 0.00 | 0.00 | 0.00 | 96 | 1016.8 |
| 20260906014944 | 21 | 67 | 3.2 | 4.8 | 0.00 | 0.00 | 0.00 | 96 | 1017.0 |
| 20260906014438 | 21 | 31 | 1.6 | 1.6 | 0.00 | 0.00 | 0.00 | 96 | 1017.0 |
| 20260906013934 | 21 | 67 | 0.0 | 1.6 | 0.00 | 0.00 | 0.00 | 96 | 1017.0 |
| 20260906013429 | 21 | 2 | 1.6 | 3.2 | 0.00 | 0.00 | 0.00 | 96 | 1017.0 |
| 20260906012925 | 21 | 55 | 1.6 | 3.2 | 0.00 | 0.00 | 0.00 | 97 | 1016.9 |
| 20260906012425 | 21 | 67 | 1.6 | 3.2 | 0.00 | 0.00 | 0.00 | 97 | 1016.9 |
| 20260906011924 | 21 | 55 | 1.6 | 4.8 | 0.00 | 0.00 | 0.00 | 97 | 1017.2 |
| 20260906011420 | 21 | 65 | 0.0 | 1.6 | 0.00 | 0.00 | 0.00 | 97 | 1017.1 |
| 20260906010915 | 21 | 9 | 1.6 | 1.6 | 0.00 | 0.00 | 0.00 | 97 | 1016.9 |
| 20260906010411 | 21 | 51 | 3.2 | 3.2 | 0.00 | 0.00 | 0.00 | 97 | 1016.9 |
| 20260906005906 | 21 | 312 | 4.8 | 8.0 | 0.00 | 0.00 | 0.00 | 97 | 1016.8 |
| 20260906005405 | 21 | 351 | 3.2 | 3.2 | 0.00 | 0.00 | 0.00 | 97 | 1016.6 |
| 20260906004858 | 21 | 29 | 1.6 | 3.2 | 0.00 | 0.00 | 0.00 | 96 | 1016.6 |
| 20260906004353 | 21 | 161 | 3.2 | 3.2 | 0.00 | 0.00 | 0.00 | 96 | 1016.6 |
| 20260906003848 | 21 | 346 | 3.2 | 3.2 | 0.00 | 0.00 | 0.00 | 96 | 1016.2 |
| 20260906003344 | 21 | 355 | 6.4 | 11.3 | 0.00 | 0.00 | 0.00 | 96 | 1016.4 |
| 20260906002839 | 21 | 54 | 0.0 | 0.0 | 0.00 | 0.00 | 0.00 | 96 | 1016.3 |
| 20260906002338 | 21 | 67 | 3.2 | 4.8 | 0.00 | 0.00 | 0.00 | 96 | 1016.2 |
| 20260906001834 | 21 | 339 | 3.2 | 4.8 | 0.00 | 0.00 | 0.00 | 96 | 1016.6 |
| 20260906001330 | 21 | 24 | 4.8 | 4.8 | 0.00 | 0.00 | 0.00 | 95 | 1016.5 |
| 20260906000825 | 21 | 343 | 3.2 | 3.2 | 0.00 | 0.00 | 0.00 | 95 | 1016.5 |
| 20260906000319 | 21 | 343 | 6.4 | 8.0 | 0.00 | 0.00 | 0.00 | 95 | 1016.4 |
| 20260905235819 | 21 | 5 | 3.2 | 4.8 | 0.00 | 0.00 | 0.00 | 95 | 1016.3 |
| 20260905235314 | 21 | 59 | 3.2 | 4.8 | 0.00 | 0.00 | 0.00 | 95 | 1016.3 |
| 20260905234809 | 21 | 53 | 8.0 | 14.5 | 0.00 | 0.00 | 0.00 | 96 | 1016.1 |
| 20260905234304 | 21 | 25 | 1.6 | 3.2 | 0.00 | 0.00 | 0.00 | 96 | 1016.2 |
| 20260905233759 | 21 | 9 | 0.0 | 1.6 | 0.00 | 0.00 | 0.00 | 96 | 1016.5 |
| 20260905233254 | 21 | 128 | 3.2 | 3.2 | 0.00 | 0.00 | 0.00 | 96 | 1016.5 |
| 20260905232753 | 21 | 11 | 4.8 | 8.0 | 0.00 | 0.00 | 0.00 | 96 | 1016.6 |
| 20260905232249 | 21 | 57 | 12.9 | 14.5 | 0.00 | 0.00 | 0.00 | 95 | 1016.4 |
| 20260905231745 | 21 | 345 | 8.0 | 14.5 | 0.00 | 0.00 | 0.00 | 95 | 1016.2 |
| 20260905231240 | 21 | 33 | 3.2 | 4.8 | 0.00 | 0.00 | 0.00 | 95 | 1016.3 |
| 20260905230736 | 22 | 40 | 4.8 | 9.7 | 0.00 | 0.00 | 0.00 | 95 | 1016.2 |
| 20260905230234 | 22 | 68 | 1.6 | 3.2 | 0.00 | 0.00 | 0.00 | 94 | 1016.2 |
| 20260905225734 | 22 | 73 | 1.6 | 3.2 | 0.00 | 0.00 | 0.00 | 94 | 1016.3 |
| 20260905225229 | 22 | 101 | 4.8 | 8.0 | 0.00 | 0.00 | 0.00 | 93 | 1016.3 |
| 20260905224728 | 23 | 192 | 1.6 | 3.2 | 0.00 | 0.00 | 0.00 | 92 | 1015.9 |
| 20260905224223 | 23 | 36 | 4.8 | 8.0 | 0.00 | 0.00 | 0.00 | 92 | 1015.9 |
| 20260905223720 | 23 | 91 | 3.2 | 4.8 | 0.00 | 0.00 | 0.00 | 91 | 1015.8 |
| 20260905223216 | 23 | 78 | 3.2 | 3.2 | 0.00 | 0.00 | 0.00 | 91 | 1015.7 |
| 20260905222712 | 23 | 40 | 6.4 | 9.7 | 0.00 | 0.00 | 0.00 | 90 | 1016.1 |
| 20260905222211 | 24 | 69 | 1.6 | 1.6 | 0.00 | 0.00 | 0.00 | 89 | 1015.8 |
| 20260905221707 | 24 | 9 | 6.4 | 12.9 | 0.00 | 0.00 | 0.00 | 89 | 1015.7 |
| 20260905221204 | 24 | 104 | 1.6 | 1.6 | 0.00 | 0.00 | 0.00 | 90 | 1015.8 |
| 20260905220659 | 25 | 88 | 1.6 | 3.2 | 0.00 | 0.00 | 0.00 | 89 | 1015.9 |
| 20260905220155 | 25 | 56 | 0.0 | 1.6 | 0.00 | 0.00 | 0.00 | 88 | 1016.0 |
| 20260905215654 | 25 | 84 | 3.2 | 4.8 | 0.00 | 0.00 | 0.00 | 86 | 1015.6 |
| 20260905215150 | 26 | 58 | 3.2 | 8.0 | 0.00 | 0.00 | 0.00 | 86 | 1015.5 |
| 20260905214646 | 25 | 59 | 4.8 | 8.0 | 0.00 | 0.00 | 0.00 | 86 | 1015.5 |
| 20260905214141 | 25 | 31 | 1.6 | 1.6 | 0.00 | 0.00 | 0.00 | 88 | 1015.3 |
| 20260905213636 | 25 | 87 | 6.4 | 8.0 | 0.00 | 0.00 | 0.00 | 87 | 1015.5 |
| 20260905213131 | 26 | 69 | 4.8 | 4.8 | 0.00 | 0.00 | 0.00 | 84 | 1015.5 |
| 20260905212627 | 26 | 348 | 4.8 | 8.0 | 0.00 | 0.00 | 0.00 | 85 | 1015.2 |
| 20260905212126 | 25 | 66 | 6.4 | 9.7 | 0.00 | 0.00 | 0.00 | 87 | 1015.1 |
| 20260905211621 | 25 | 144 | 1.6 | 3.2 | 0.00 | 0.00 | 0.00 | 89 | 1015.2 |
| 20260905211117 | 25 | 121 | 1.6 | 1.6 | 0.00 | 0.00 | 0.00 | 90 | 1015.2 |
| 20260905210613 | 25 | 81 | 1.6 | 3.2 | 0.00 | 0.00 | 0.00 | 88 | 1015.3 |
| 20260905210108 | 26 | 55 | 1.6 | 3.2 | 0.00 | 0.00 | 0.00 | 85 | 1015.1 |
| 20260905205607 | 26 | 56 | 3.2 | 3.2 | 0.00 | 0.00 | 0.00 | 83 | 1015.1 |
| 20260905205106 | 26 | 77 | 3.2 | 4.8 | 0.00 | 0.00 | 0.00 | 81 | 1015.2 |
| 20260905204601 | 26 | 54 | 0.0 | 1.6 | 0.00 | 0.00 | 0.00 | 82 | 1015.2 |
| 20260905204056 | 27 | 344 | 3.2 | 4.8 | 0.00 | 0.00 | 0.00 | 81 | 1015.2 |
| 20260905203556 | 27 | 36 | 1.6 | 3.2 | 0.00 | 0.00 | 0.00 | 80 | 1015.1 |
| 20260905203051 | 27 | 79 | 1.6 | 1.6 | 0.00 | 0.00 | 0.00 | 80 | 1015.1 |
| 20260905202546 | 27 | 38 | 4.8 | 4.8 | 0.00 | 0.00 | 0.00 | 81 | 1015.1 |
| 20260905202042 | 27 | 21 | 4.8 | 8.0 | 0.00 | 0.00 | 0.00 | 80 | 1015.0 |
| 20260905201538 | 26 | 72 | 1.6 | 3.2 | 0.00 | 0.00 | 0.00 | 83 | 1015.1 |
| 20260905201037 | 27 | 78 | 8.0 | 9.7 | 0.00 | 0.00 | 0.00 | 82 | 1015.1 |
| 20260905200532 | 27 | 286 | 1.6 | 3.2 | 0.00 | 0.00 | 0.00 | 82 | 1015.4 |
| 20260905200032 | 26 | 80 | 4.8 | 4.8 | 0.00 | 0.00 | 0.00 | 83 | 1015.3 |
| 20260905195526 | 26 | 47 | 1.6 | 4.8 | 0.00 | 0.00 | 0.00 | 85 | 1015.2 |
| 20260905195022 | 26 | 78 | 3.2 | 4.8 | 0.00 | 0.00 | 0.00 | 86 | 1015.4 |
| 20260905194516 | 26 | 101 | 3.2 | 3.2 | 0.00 | 0.00 | 0.00 | 87 | 1015.6 |
| 20260905194015 | 26 | 122 | 1.6 | 3.2 | 0.00 | 0.00 | 0.00 | 86 | 1015.7 |
| 20260905193510 | 25 | 49 | 3.2 | 3.2 | 0.00 | 0.00 | 0.00 | 87 | 1015.5 |
| 20260905193005 | 25 | 64 | 1.6 | 3.2 | 0.00 | 0.00 | 0.00 | 87 | 1015.7 |
| 20260905192500 | 26 | 97 | 1.6 | 1.6 | 0.00 | 0.00 | 0.00 | 87 | 1015.6 |
| 20260905191956 | 26 | 86 | 0.0 | 0.0 | 0.00 | 0.00 | 0.00 | 87 | 1015.6 |
| 20260905191455 | 25 | 141 | 1.6 | 1.6 | 0.00 | 0.00 | 0.00 | 88 | 1015.7 |
| 20260905190955 | 25 | 17 | 6.4 | 8.0 | 0.00 | 0.00 | 0.00 | 89 | 1015.6 |
| 20260905190453 | 25 | 84 | 1.6 | 3.2 | 0.00 | 0.00 | 0.00 | 91 | 1015.6 |
| 20260905185951 | 25 | 77 | 1.6 | 3.2 | 0.00 | 0.00 | 0.00 | 91 | 1016.0 |
| 20260905185447 | 25 | 81 | 1.6 | 1.6 | 0.00 | 0.00 | 0.00 | 90 | 1015.9 |
| 20260905184945 | 25 | 358 | 0.0 | 0.0 | 0.00 | 0.00 | 0.00 | 91 | 1015.8 |
| 20260905184440 | 24 | 70 | 0.0 | 1.6 | 0.00 | 0.00 | 0.00 | 91 | 1015.9 |
| 20260905183939 | 24 | 354 | 4.8 | 4.8 | 0.00 | 0.00 | 0.00 | 92 | 1016.0 |
| 20260905183433 | 25 | 43 | 6.4 | 11.3 | 0.00 | 0.00 | 0.00 | 92 | 1016.0 |
| 20260905182929 | 25 | 71 | 1.6 | 1.6 | 0.00 | 0.00 | 0.00 | 92 | 1016.0 |
| 20260905182427 | 24 | 79 | 3.2 | 4.8 | 0.00 | 0.00 | 0.00 | 92 | 1016.0 |
| 20260905181923 | 24 | 4 | 6.4 | 9.7 | 0.00 | 0.00 | 0.00 | 92 | 1015.8 |
| 20260905181418 | 24 | 291 | 1.6 | 3.2 | 0.00 | 0.00 | 0.00 | 92 | 1015.9 |
| 20260905180917 | 25 | 77 | 1.6 | 1.6 | 0.00 | 0.00 | 0.00 | 91 | 1015.9 |
| 20260905180412 | 25 | 22 | 3.2 | 3.2 | 0.00 | 0.00 | 0.00 | 91 | 1015.7 |
| 20260905175907 | 25 | 46 | 0.0 | 1.6 | 0.00 | 0.00 | 0.00 | 92 | 1015.9 |
| 20260905175406 | 24 | 117 | 0.0 | 0.0 | 0.00 | 0.00 | 0.00 | 92 | 1015.7 |
| 20260905174901 | 24 | 280 | 1.6 | 3.2 | 0.00 | 0.00 | 0.00 | 93 | 1015.8 |
| 20260905174357 | 23 | 298 | 0.0 | 1.6 | 0.00 | 0.00 | 0.00 | 94 | 1015.8 |
| 20260905173852 | 23 | 346 | 6.4 | 8.0 | 0.00 | 0.00 | 0.00 | 93 | 1015.6 |
| 20260905173349 | 23 | 36 | 0.0 | 1.6 | 0.00 | 0.00 | 0.00 | 94 | 1015.9 |
| 20260905172844 | 23 | 93 | 3.2 | 3.2 | 0.00 | 0.00 | 0.00 | 94 | 1015.8 |
| 20260905172341 | 23 | 80 | 1.6 | 1.6 | 0.00 | 0.00 | 0.00 | 94 | 1015.9 |
| 20260905171838 | 23 | 110 | 1.6 | 1.6 | 0.00 | 0.00 | 0.00 | 94 | 1016.0 |
| 20260905171334 | 23 | 88 | 1.6 | 1.6 | 0.00 | 0.00 | 0.00 | 94 | 1015.7 |
| 20260905170830 | 23 | 354 | 4.8 | 8.0 | 0.00 | 0.00 | 0.00 | 94 | 1016.0 |
| 20260905170326 | 23 | 193 | 1.6 | 1.6 | 0.00 | 0.00 | 0.00 | 95 | 1016.2 |
| 20260905165825 | 23 | 353 | 1.6 | 3.2 | 0.00 | 0.00 | 0.00 | 95 | 1016.2 |
| 20260905165321 | 23 | 65 | 3.2 | 4.8 | 0.00 | 0.00 | 0.00 | 95 | 1015.9 |
| 20260905164820 | 23 | 336 | 4.8 | 8.0 | 0.00 | 0.00 | 0.00 | 95 | 1016.2 |
| 20260905164315 | 23 | 106 | 0.0 | 1.6 | 0.00 | 0.00 | 0.00 | 96 | 1016.3 |
| 20260905163811 | 23 | 88 | 1.6 | 1.6 | 0.00 | 0.00 | 0.00 | 95 | 1016.1 |
| 20260905163307 | 23 | 97 | 4.8 | 9.7 | 0.00 | 0.00 | 0.00 | 95 | 1016.2 |
| 20260905162803 | 23 | 351 | 1.6 | 3.2 | 0.00 | 0.00 | 0.00 | 95 | 1015.9 |
| 20260905162305 | 23 | 296 | 1.6 | 3.2 | 0.00 | 0.00 | 0.00 | 95 | 1015.9 |
| 20260905161757 | 23 | 99 | 4.8 | 8.0 | 0.00 | 0.00 | 0.00 | 95 | 1015.9 |
| 20260905161256 | 23 | 68 | 3.2 | 4.8 | 0.00 | 0.00 | 0.00 | 95 | 1016.1 |
| 20260905160755 | 23 | 19 | 1.6 | 3.2 | 0.00 | 0.00 | 0.00 | 95 | 1016.0 |
| 20260905160249 | 23 | 79 | 6.4 | 9.7 | 0.00 | 0.00 | 0.00 | 95 | 1015.9 |
| 20260905155744 | 23 | 107 | 0.0 | 0.0 | 0.00 | 0.00 | 0.00 | 95 | 1016.1 |
| 20260905155243 | 23 | 88 | 4.8 | 4.8 | 0.00 | 0.00 | 0.00 | 95 | 1015.8 |
| 20260905154737 | 23 | 73 | 1.6 | 3.2 | 0.00 | 0.00 | 0.00 | 95 | 1016.0 |
| 20260905154233 | 23 | 124 | 3.2 | 4.8 | 0.00 | 0.00 | 0.00 | 96 | 1015.8 |
| 20260905153728 | 23 | 91 | 1.6 | 3.2 | 0.00 | 0.00 | 0.00 | 96 | 1015.8 |
| 20260905153224 | 23 | 72 | 4.8 | 8.0 | 0.00 | 0.00 | 0.00 | 95 | 1015.7 |
| 20260905152719 | 23 | 321 | 3.2 | 3.2 | 0.00 | 0.00 | 0.00 | 95 | 1015.7 |
| 20260905152213 | 23 | 347 | 3.2 | 4.8 | 0.00 | 0.00 | 0.00 | 96 | 1015.6 |
| 20260905151713 | 23 | 105 | 4.8 | 9.7 | 0.00 | 0.00 | 0.00 | 96 | 1015.6 |
| 20260905151209 | 23 | 90 | 1.6 | 3.2 | 0.00 | 0.00 | 0.00 | 96 | 1015.3 |
| 20260905150704 | 23 | 14 | 3.2 | 3.2 | 0.00 | 0.00 | 0.00 | 96 | 1015.2 |
| 20260905150203 | 23 | 72 | 0.0 | 1.6 | 0.00 | 0.00 | 0.00 | 96 | 1015.3 |
| 20260905145700 | 23 | 73 | 3.2 | 8.0 | 0.00 | 0.00 | 0.00 | 95 | 1015.4 |
| 20260905145155 | 24 | 11 | 0.0 | 1.6 | 0.00 | 0.00 | 0.00 | 95 | 1015.4 |
| 20260905144655 | 24 | 88 | 3.2 | 3.2 | 0.00 | 0.00 | 0.00 | 94 | 1015.3 |
| 20260905144155 | 25 | 55 | 3.2 | 3.2 | 0.00 | 0.00 | 0.00 | 94 | 1015.3 |
| 20260905143654 | 25 | 131 | 0.0 | 1.6 | 0.00 | 0.00 | 0.00 | 95 | 1015.1 |
| 20260905143149 | 23 | 45 | 8.0 | 12.9 | 0.00 | 0.00 | 0.00 | 98 | 1015.3 |
| 20260905142647 | 23 | 122 | 0.0 | 1.6 | 0.00 | 0.00 | 0.00 | 99 | 1015.3 |
| 20260905142147 | 22 | 40 | 1.6 | 3.2 | 0.00 | 0.00 | 0.00 | 99 | 1015.3 |
| 20260905141642 | 22 | 53 | 1.6 | 1.6 | 0.00 | 0.00 | 0.00 | 99 | 1015.3 |
| 20260905141139 | 22 | 84 | 0.0 | 1.6 | 0.00 | 0.00 | 0.00 | 99 | 1015.3 |
| 20260905140634 | 22 | 254 | 3.2 | 3.2 | 0.00 | 0.00 | 0.00 | 99 | 1015.0 |
| 20260905140133 | 22 | 15 | 4.8 | 4.8 | 0.00 | 0.00 | 0.00 | 99 | 1015.0 |
| 20260905135629 | 22 | 64 | 1.6 | 3.2 | 0.00 | 0.00 | 0.00 | 99 | 1015.2 |
| 20260905135124 | 22 | 56 | 0.0 | 3.2 | 0.00 | 0.00 | 0.00 | 99 | 1015.1 |
| 20260905134618 | 22 | 330 | 3.2 | 4.8 | 0.00 | 0.00 | 0.00 | 99 | 1015.0 |
| 20260905134117 | 22 | 335 | 0.0 | 1.6 | 0.00 | 0.00 | 0.00 | 99 | 1014.8 |
| 20260905133613 | 22 | 69 | 1.6 | 3.2 | 0.00 | 0.00 | 0.00 | 99 | 1015.0 |
| 20260905133113 | 22 | 354 | 0.0 | 1.6 | 0.00 | 0.00 | 0.00 | 99 | 1015.1 |
| 20260905132612 | 22 | 8 | 3.2 | 3.2 | 0.00 | 0.00 | 0.00 | 99 | 1015.2 |
| 20260905132107 | 22 | 91 | 0.0 | 0.0 | 0.00 | 0.00 | 0.00 | 99 | 1015.4 |
| 20260905131603 | 22 | 70 | 1.6 | 1.6 | 0.00 | 0.00 | 0.00 | 99 | 1015.5 |